This demonstration page uses our WeatherBlox Daily Observations layout. Learn more.

Left ArrowRight Arrow

Hourly Observations for June 2, 2021

Temp ( °F °C ) Dew Point ( °F °C ) Humidity (%) Winds ( mph kmh ) Pressure ( in mb ) Visibility ( mi km ) Precip ( " mm )
12:15 am 00:15 Partly Cloudy 66 19 61 16 83 83 S 6 9 30.23 1024 10 16 N/A
12:35 am 00:35 Partly Cloudy 64 18 61 16 88 88 S 6 9 30.23 1024 10 16 N/A
12:55 am 00:55 Clear 64 18 61 16 88 88 S 5 7 30.22 1024 10 16 N/A
1:15 am 01:15 Clear 64 18 61 16 88 88 SSE 3 6 30.21 1023 10 16 N/A
1:35 am 01:35 Clear 64 18 61 16 88 88 SE 5 7 30.20 1023 10 16 N/A
1:55 am 01:55 Clear 64 18 61 16 88 88 SE 3 6 30.19 1022 10 16 N/A
2:15 am 02:15 Clear 63 17 61 16 94 94 WSW 5 7 30.23 1024 10 16 N/A
2:35 am 02:35 Mostly Cloudy 63 17 59 15 88 88 N N/A 30.22 1023 10 16 N/A
2:55 am 02:55 Cloudy 63 17 59 15 88 88 SE 3 6 30.22 1023 10 16 N/A
3:15 am 03:15 Cloudy 63 17 61 16 94 94 S 3 6 30.22 1023 10 16 N/A
3:35 am 03:35 Cloudy 63 17 59 15 88 88 S 6 9 30.22 1023 10 16 N/A
3:55 am 03:55 Cloudy 63 17 59 15 88 88 S 8 13 30.21 1023 10 16 N/A
4:15 am 04:15 Mostly Cloudy 63 17 59 15 88 88 SSE 5 7 30.21 1023 10 16 N/A
4:35 am 04:35 Mostly Cloudy 63 17 59 15 88 88 S 5 7 30.21 1023 10 16 N/A
4:55 am 04:55 Mostly Cloudy 63 17 59 15 88 88 SSE 5 7 30.20 1023 10 16 N/A
5:15 am 05:15 Mostly Cloudy 63 17 59 15 88 88 S 5 7 30.21 1023 10 16 N/A
5:35 am 05:35 Cloudy 63 17 59 15 88 88 SSW 3 6 30.22 1023 10 16 N/A
5:55 am 05:55 Cloudy 63 17 57 14 83 83 N N/A 30.21 1023 10 16 N/A
6:15 am 06:15 Mostly Cloudy 61 16 57 14 88 88 N N/A 30.21 1023 10 16 N/A
6:35 am 06:35 Mostly Cloudy 61 16 57 14 88 88 N N/A 30.21 1023 10 16 N/A
6:55 am 06:55 Partly Cloudy 61 16 57 14 88 88 SSE 6 9 30.21 1023 10 16 N/A
7:15 am 07:15 Sunny 61 16 57 14 88 88 SSW 3 6 30.23 1024 10 16 N/A
7:35 am 07:35 Sunny 61 16 57 14 88 88 SSE 5 7 30.22 1023 10 16 N/A
7:55 am 07:55 Partly Cloudy 63 17 57 14 83 83 S 10 17 30.23 1024 10 16 N/A
8:15 am 08:15 Sunny 63 17 57 14 83 83 SSE 7 11 30.21 1023 10 16 N/A
8:35 am 08:35 Sunny 63 17 59 15 88 88 SSW 7 11 30.23 1024 10 16 N/A
8:55 am 08:55 Sunny 63 17 59 15 88 88 SSW 5 7 30.23 1024 10 16 N/A
9:15 am 09:15 Sunny 64 18 59 15 83 83 S 3 6 30.21 1023 10 16 N/A
9:35 am 09:35 Sunny 64 18 59 15 83 83 S 5 7 30.21 1023 10 16 N/A
9:55 am 09:55 Sunny 64 18 59 15 83 83 S 5 7 30.21 1023 10 16 N/A
10:15 am 10:15 Sunny 66 19 59 15 78 78 SSW 5 7 30.21 1023 10 16 N/A
10:35 am 10:35 Sunny 66 19 59 15 78 78 S 5 7 30.21 1023 10 16 N/A
10:55 am 10:55 Sunny 68 20 59 15 73 73 S 5 7 30.20 1023 10 16 N/A
11:15 am 11:15 Sunny 70 21 61 16 73 73 S 5 7 30.21 1023 10 16 N/A
11:35 am 11:35 Sunny 70 21 59 15 69 69 S 5 7 30.21 1023 10 16 N/A
11:55 am 11:55 Sunny 72 22 61 16 69 69 S 5 7 30.20 1023 10 16 N/A
12:15 pm 12:15 Sunny 73 23 61 16 65 65 S 10 17 30.19 1022 10 16 N/A
12:35 pm 12:35 Sunny 75 24 59 15 57 57 S 8 13 30.19 1022 10 16 N/A
12:55 pm 12:55 Sunny 77 25 59 15 54 54 SW 8 13 30.17 1022 10 16 N/A
1:15 pm 13:15 Sunny 77 25 59 15 54 54 SSE 7 11 30.17 1022 10 16 N/A
1:35 pm 13:35 Partly Cloudy 77 25 59 15 54 54 SSW 9 15 30.16 1021 10 16 N/A
1:55 pm 13:55 Partly Cloudy 77 25 59 15 54 54 S 6 9 30.16 1021 10 16 N/A
2:15 pm 14:15 Partly Cloudy 79 26 55 13 45 45 S 12 19 30.14 1021 10 16 N/A
2:35 pm 14:35 Partly Cloudy 81 27 55 13 42 42 S 12 19 30.13 1020 10 16 N/A
2:55 pm 14:55 Partly Cloudy 81 27 55 13 42 42 S 12 19 30.13 1020 10 16 N/A
3:15 pm 15:15 Partly Cloudy 81 27 57 14 45 45 SSW 9 15 30.12 1020 10 16 N/A
3:35 pm 15:35 Mostly Cloudy 81 27 55 13 42 42 SSE 14 22 30.12 1020 10 16 N/A
3:55 pm 15:55 Partly Cloudy 81 27 57 14 45 45 SSE 12 19 30.12 1020 10 16 N/A
4:15 pm 16:15 Partly Cloudy 79 26 59 15 51 51 S 15 24 30.11 1020 10 16 N/A
4:35 pm 16:35 Partly Cloudy 79 26 59 15 51 51 S 14 22 30.11 1020 10 16 N/A
4:55 pm 16:55 Partly Cloudy 79 26 59 15 51 51 SSE 10 17 30.10 1019 10 16 N/A
5:15 pm 17:15 Partly Cloudy 79 26 59 15 51 51 S 12 19 30.10 1019 10 16 N/A
5:35 pm 17:35 Mostly Cloudy 79 26 57 14 48 48 S 12 19 30.09 1019 10 16 N/A
5:55 pm 17:55 Partly Cloudy 79 26 59 15 51 51 S 9 15 30.09 1019 10 16 N/A
6:15 pm 18:15 Sunny 79 26 59 15 51 51 SSE 16 26 30.09 1019 10 16 N/A
6:35 pm 18:35 Sunny 77 25 61 16 57 57 S 8 13 30.08 1019 10 16 N/A
6:55 pm 18:55 Sunny 77 25 61 16 57 57 SSE 16 26 30.08 1019 10 16 N/A
7:15 pm 19:15 Sunny 77 25 61 16 57 57 SSE 14 22 30.08 1019 10 16 N/A
7:35 pm 19:35 Sunny 75 24 61 16 61 61 S 14 22 30.10 1019 10 16 N/A
7:55 pm 19:55 Sunny 73 23 61 16 65 65 SSE 8 13 30.11 1020 10 16 N/A
8:15 pm 20:15 Sunny 73 23 61 16 65 65 SSE 14 22 30.11 1020 10 16 N/A
8:35 pm 20:35 Clear 72 22 61 16 69 69 SSE 13 20 30.11 1020 10 16 N/A
8:55 pm 20:55 Clear 72 22 61 16 69 69 SSE 12 19 30.10 1019 10 16 N/A
9:15 pm 21:15 Clear 72 22 61 16 69 69 SSE 8 13 30.11 1020 10 16 N/A
9:35 pm 21:35 Clear 72 22 61 16 69 69 SE 10 17 30.11 1020 10 16 N/A
9:55 pm 21:55 Clear 72 22 61 16 69 69 SSE 12 19 30.12 1020 10 16 N/A
10:15 pm 22:15 Clear 70 21 61 16 73 73 SSE 10 17 30.12 1020 10 16 N/A
10:35 pm 22:35 Partly Cloudy 70 21 61 16 73 73 S 9 15 30.12 1020 10 16 N/A
10:55 pm 22:55 Partly Cloudy 70 21 61 16 73 73 S 9 15 30.12 1020 10 16 N/A
11:15 pm 23:15 Partly Cloudy 70 21 61 16 73 73 S 13 20 30.12 1020 10 16 N/A
11:35 pm 23:35 Mostly Cloudy 70 21 61 16 73 73 SSE 7 11 30.11 1020 10 16 N/A
11:55 pm 23:55 Partly Cloudy 70 21 61 16 73 73 S 10 17 30.11 1020 10 16 N/A

Powered by AerisWeather